Location: St Paul
(33.4390°N, 83.7350°W)
Time: 00:29:00
(UTC-04:00)

Atlas Centaur 2 - Pass Details

Date: 06 October 2017
Orbit: 459 x 1313 km, 30.4° (Epoch: 22 October)

Event Time Altitude Azimuth Distance (km) Brightness Sun altitude
Rises 22:14:04 0° 242° (WSW) 3,728 6.0 -38.1°
Reaches altitude 10° 22:16:38 10° 237° (WSW) 2,893 5.3 -38.6°
Enters shadow 22:19:19 25° 228° (SW) 2,105 4.3 -39.1°
